Location: Silverdale
(47.6506°N, 122.6941°W)
Time: 04:02:58
(UTC+00:00)

Altair - Pass Details

Date: 04 October 2022
Orbit: 1501 x 1682 km, 47.2° (Epoch: 04 December)

Event Time Altitude Azimuth Distance (km) Brightness Sun altitude
Rises 16:03:53 0° 273° (W) 4,836 9.6 16.8°
Reaches altitude 10° 16:06:58 10° 273° (W) 3,871 9.1 17.2°
Maximum altitude 16:16:58 87° 187° (S) 1,676 8.1 18.7°
Drops below altitude 10° 16:27:11 10° 99° (E) 3,945 11.1 20.2°
Sets 16:30:21 0° 100° (E) 4,931 11.3 20.6°
